CAPE
4 3 5 5 5 4 2 1 0 0 1 2 2 2 0 0 0 0 0 0 0 0 0 0 0 0 0 0 0 0 0 0 0 0 0 0 0 0 0 0 0 0 0 0 0
1 1 4 4 3 2 1 1 1 1 1 1 2 2 1 0 0 0 0 0 0 0 0 0 0 0 0 0 0 0 0 0 0 0 0 0 0 0 0 0 0 0 0 0 0
1 1 4 5 4 3 3 2 1 1 2 4 4 3 1 0 0 0 0 0 0 0 0 0 0 0 0 0 0 0 0 0 0 0 0 0 0 0 0 0 0 0 0 0 0
4 5 4 4 5 5 6 4 2 1 1 4 4 1 0 0 0 0 0 0 0 0 0 0 0 0 0 0 0 0 0 0 0 0 0 0 0 0 0 0 0 0 0 0 0
3 2 2 1 2 3 2 3 4 4 2 1 2 2 0 0 0 0 0 0 0 0 0 0 0 0 0 0 0 0 0 0 0 0 0 0 0 0 0 0 0 0 0 0 0
3 1 2 2 1 2 1 0 1 1 1 1 2 2 0 0 0 0 0 0 0 0 0 0 0 0 0 0 0 0 0 0 0 0 0 0 0 0 0 0 0 0 0 0 0
0 0 0 0 0 0 0 0 0 1 0 1 1 0 0 0 0 0 0 0 0 0 0 0 0 0 0 0 0 0 0 0 0 0 0 0 0 0 0 0 0 0 0 0 0
2 1 0 0 0 0 0 0 0 0 0 0 1 0 0 0 0 0 0 0 0 0 0 0 0 0 0 0 0 0 0 0 0 0 0 0 0 0 0 0 0 0 0 0 0
2 1 0 0 0 0 0 0 0 0 0 0 0 0 0 0 0 0 0 0 0 0 0 0 0 0 0 0 0 0 0 0 0 0 0 0 0 0 0 0 0 0 0 0 0
1 0 0 0 0 0 0 0 0 0 0 0 0 0 0 0 0 0 0 0 0 0 0 0 0 0 0 0 0 0 0 0 0 0 0 0 0 0 0 0 0 0 0 0 0
3 1 1 0 0 0 0 0 0 0 0 0 0 0 0 0 0 0 0 0 0 0 0 0 0 0 0 0 0 0 0 0 0 0 0 0 0 0 0 0 0 0 0 0 0
3 3 3 0 0 0 0 0 0 0 0 0 0 0 0 0 0 0 0 0 0 0 0 0 0 0 0 0 0 0 0 0 0 0 0 0 0 0 0 0 0 0 0 0 0
3 1 1 0 0 0 0 0 0 0 0 0 0 0 0 0 0 0 0 0 0 0 0 0 0 0 0 0 0 0 0 0 0 0 0 0 0 0 0 0 0 0 0 0 0
1 1 1 0 0 0 0 0 0 0 0 0 0 0 0 0 0 0 0 0 0 0 0 0 0 0 0 0 0 0 0 0 0 0 0 0 0 0 0 0 0 0 0 0 0
2 0 0 2 0 0 0 0 0 0 0 0 0 0 0 0 0 0 34 1 0 0 0 0 0 0 0 0 0 0 0 0 0 0 0 0 0 0 0 0 0 0 0 0 0
2 2 0 0 0 0 0 0 0 0 0 0 0 0 0 0 0 0 0 13 10 0 7 0 7 0 0 0 0 0 0 0 0 0 0 0 0 0 0 0 0 0 0 0 0
0 1 0 0 0 0 0 0 0 0 0 0 0 0 0 0 0 0 0 0 0 0 0 1 0 0 0 0 0 0 0 0 0 0 0 0 0 0 0 0 0 0 0 0 0
0 0 0 0 0 0 0 0 0 0 0 0 0 0 0 0 0 0 0 0 14 0 0 0 0 0 0 0 0 0 0 0 0 0 0 0 0 0 0 0 0 0 0 0 0
0 0 0 0 0 0 0 0 0 0 0 0 0 0 0 0 0 0 0 0 2 1 0 0 0 0 1 2 0 0 0 0 0 0 0 0 0 0 0 0 0 0 0 0 0
0 0 0 0 0 0 0 0 0 0 0 0 0 0 0 0 0 0 0 22 3 0 0 0 0 0 0 0 0 0 0 0 0 0 0 0 0 0 0 0 0 0 0 0 0
0 0 0 0 0 0 0 0 0 0 0 0 0 0 0 1 0 0 0 2 31 0 5 0 0 0 0 0 0 0 0 0 0 0 0 0 0 0 0 0 0 0 0 0 0
0 0 0 0 0 0 0 0 0 0 0 0 0 0 0 1 0 0 0 0 0 0 6 5 0 0 0 0 0 0 0 0 1 0 0 0 0 0 0 0 0 0 0 0 0
0 0 0 0 0 0 0 0 0 0 0 1 0 2 1 4 5 0 0 0 0 0 4 1 0 0 0 0 0 0 0 0 0 0 0 0 0 0 0 0 0 0 0 0 70
0 0 0 0 0 0 0 0 0 0 0 1 0 3 1 1 0 3 0 0 0 1 12 38 1 0 0 0 0 0 0 0 0 0 0 0 0 0 0 0 0 0 0 0 203
0 0 0 0 0 0 0 0 0 1 13 3 0 8 10 4 4 0 0 0 0 1 6 17 1 0 0 0 0 0 0 0 0 0 0 0 0 0 0 0 0 0 0 0 218
0 0 0 0 0 0 0 0 1 1 2 1 2 1 3 8 2 3 7 4 0 0 0 0 6 6 0 0 0 0 0 0 0 0 0 0 0 0 0 0 0 0 0 0 211
0 0 0 0 0 0 0 0 0 0 1 5 2 5 3 2 6 3 1 0 1 2 5 0 5 0 0 0 0 0 0 0 0 0 0 0 0 0 0 0 0 0 0 15 192
CIN
0 0 0 0 0 0 0 0 0 0 0 0 0 0 0 0 0 0 0 0 0 0 0 0 0 0 0 0 0 0 0 0 0 0 0 0 0 0 0 0 0 0 0 0 0
0 0 0 0 0 0 0 0 0 0 0 0 0 0 0 0 0 0 0 0 0 0 0 0 0 0 0 0 0 0 0 0 0 0 0 0 0 0 0 0 0 0 0 0 0
-3 -1 0 0 0 0 0 0 0 0 0 0 0 0 0 0 0 0 0 0 0 0 0 0 0 0 0 0 0 0 0 0 0 0 0 0 0 0 0 0 0 0 0 0 0
0 0 0 0 0 0 0 0 0 0 0 0 0 -1 0 0 0 0 0 0 0 0 0 0 0 0 0 0 0 0 0 0 0 0 0 0 0 0 0 0 0 0 0 0 0
0 0 0 0 0 0 0 0 0 0 -1 -1 -1 -1 0 0 0 0 0 0 0 0 0 0 0 0 0 0 0 0 0 0 0 0 0 0 0 0 0 0 0 0 0 0 0
0 0 0 0 0 0 0 0 0 0 0 0 0 -1 0 0 0 0 0 0 0 0 0 0 0 0 0 0 0 0 0 0 0 0 0 0 0 0 0 0 0 0 0 0 0
0 0 0 0 0 0 0 0 0 0 0 0 -1 0 0 0 0 0 0 0 0 0 0 0 0 0 0 0 0 0 0 0 0 0 0 0 0 0 0 0 0 0 0 0 0
0 0 0 0 0 0 0 0 0 0 0 0 0 0 0 0 0 0 0 0 0 0 0 0 0 0 0 0 0 0 0 0 0 0 0 0 0 0 0 0 0 0 0 0 0
0 0 0 0 0 0 0 0 0 0 0 0 0 0 0 0 0 0 0 0 0 0 0 0 0 0 0 0 0 0 0 0 0 0 0 0 0 0 0 0 0 0 0 0 0
0 0 0 0 0 0 0 0 0 0 0 0 0 0 0 0 0 0 0 0 0 0 0 0 0 0 0 0 0 0 0 0 0 0 0 0 0 0 0 0 0 0 0 0 0
0 0 0 0 0 0 0 0 0 0 0 0 0 0 0 0 0 0 0 0 0 0 0 0 0 0 0 0 0 0 0 0 0 0 0 0 0 0 0 0 0 0 0 0 0
0 0 0 0 0 0 0 0 0 0 0 0 0 0 0 0 0 0 0 0 0 0 0 0 0 0 0 0 0 0 0 0 0 0 0 0 0 0 0 0 0 0 0 0 0
0 0 0 0 0 0 0 0 0 0 0 0 0 0 0 0 0 0 0 0 0 0 0 0 0 0 0 0 0 0 0 0 0 0 0 0 0 0 0 0 0 0 0 0 0
0 0 0 0 0 0 0 0 0 0 0 0 0 0 0 0 0 0 0 0 0 0 0 0 0 0 0 0 0 0 0 0 0 0 0 0 0 0 0 0 0 0 0 0 0
0 -1 0 0 0 0 0 0 0 0 0 0 0 0 0 0 0 0 -31 -3 0 0 0 0 0 0 0 0 0 0 0 0 0 0 0 0 0 0 0 0 0 0 0 0 0
0 0 0 0 0 0 0 0 0 0 0 0 0 0 0 0 0 0 0 -31 -62 0 -32 0 -11 0 0 0 0 0 0 0 0 0 0 0 0 0 0 0 0 0 0 0 0
0 0 0 0 0 0 0 0 0 0 0 0 0 0 0 0 0 0 0 0 0 0 0 -46 0 0 0 0 0 0 0 0 0 0 0 0 0 0 0 0 0 0 0 0 0
0 0 0 0 0 0 0 0 0 0 0 0 0 0 0 0 0 0 0 -15 -24 -33 0 -16 0 0 0 0 0 0 0 0 0 0 0 0 0 0 0 0 0 0 0 0 0
0 0 0 0 0 0 0 0 0 0 0 0 0 0 0 0 0 0 0 0 -22 -1 0 0 0 0 -2 -25 0 0 0 0 0 0 0 0 0 0 0 0 0 0 0 0 0
0 0 0 0 0 0 0 0 0 0 -1 0 0 0 0 0 0 0 0 -35 -27 -6 -11 0 0 0 -6 0 0 0 0 0 0 0 0 0 0 0 0 0 0 0 0 0 0
0 0 0 0 0 0 0 0 0 0 0 0 -1 0 -1 -1 0 0 0 -7 -30 0 -33 -34 0 0 -56 -21 0 0 0 0 0 0 0 0 0 0 0 0 0 0 0 0 0
0 0 0 0 0 0 0 0 0 0 0 0 0 -1 0 -2 -2 0 0 0 -2 0 -33 -21 0 0 0 0 0 0 0 0 -6 0 0 0 0 0 0 0 0 0 0 0 0
0 0 0 0 0 0 0 0 0 0 0 -1 0 -7 -12 -3 -1 0 0 0 0 0 -27 -3 -1 0 0 0 0 0 0 0 0 0 0 0 0 0 0 0 0 0 0 0 -555
0 0 0 0 0 0 -1 0 0 0 0 -6 0 -12 -8 -6 0 -2 0 0 0 -10 -14 -4 -1 0 0 0 0 0 0 0 0 0 0 0 0 0 0 0 0 0 0 0 -414
0 0 0 0 0 0 0 0 -1 0 -3 -2 0 -4 0 0 0 -1 -1 0 0 -13 -10 -13 -1 -3 0 0 0 0 0 0 -6 0 0 0 0 0 0 0 0 0 0 0 -356
0 0 0 0 0 0 0 0 -1 -1 0 0 0 0 -2 0 -1 -2 0 0 0 0 0 -2 -4 -1 0 0 0 0 0 0 0 0 0 0 0 0 0 0 0 0 0 0 -323
0 0 0 0 0 0 0 0 -1 -1 -4 -1 -1 -1 -1 -10 -1 -1 0 0 0 0 -1 -1 -4 0 0 0 0 0 0 0 0 0 0 0 0 0 0 0 0 0 0 -185 -301
Wind_Speed
28 29 29 31 31 32 33 33 34 34 34 34 35 35 37 38 41 34 40 33 29 32 33 31 26 23 23 26 24 22 30 35 32 25 23 19 21 19 18 16 16 14 17 22 20
28 29 30 31 31 32 33 33 34 35 35 35 36 36 37 38 38 39 31 31 30 34 33 34 34 27 29 30 28 29 33 34 29 29 25 26 26 23 23 24 20 21 18 22 18
29 30 31 32 32 33 34 35 35 36 36 35 35 35 36 36 33 25 13 23 28 31 30 31 32 31 38 33 31 33 41 35 35 32 33 36 36 29 32 35 28 29 20 24 29
30 31 32 32 33 34 35 35 35 36 35 34 33 33 34 28 32 22 25 30 29 30 25 29 32 35 39 41 36 41 41 39 39 34 33 36 40 45 41 38 39 38 36 30 27
31 32 33 33 34 34 34 34 35 35 35 33 32 30 28 32 32 28 32 32 31 29 30 29 33 35 43 43 39 45 43 40 44 41 40 38 45 45 52 47 48 47 45 43 43
31 31 32 32 33 33 33 34 35 35 33 29 26 24 26 39 26 30 33 35 32 33 30 27 31 34 39 43 40 40 46 47 45 42 39 42 48 41 43 42 46 46 51 49 45
31 31 32 33 34 34 34 35 36 35 30 26 23 22 28 28 26 30 30 26 28 31 33 29 26 31 33 41 39 46 52 44 44 47 49 43 59 66 48 42 47 48 46 47 48
32 32 34 35 35 35 35 37 37 32 27 23 21 23 27 24 29 30 26 29 29 29 28 31 28 32 34 33 37 40 45 61 53 41 39 33 68 53 40 40 45 40 40 41 42
34 35 35 36 36 37 37 37 35 28 24 23 23 24 29 30 31 30 25 32 33 28 27 29 26 32 31 38 42 42 58 53 51 39 39 39 71 52 42 44 53 50 50 48 45
35 36 36 37 37 37 37 36 31 21 23 22 24 27 30 37 37 34 30 30 29 33 29 28 30 36 37 39 55 51 51 46 47 39 37 42 67 51 47 44 52 53 53 49 48
36 37 37 37 37 37 34 30 30 26 27 27 29 30 36 35 36 34 34 31 28 29 33 32 40 49 44 43 43 36 39 42 40 35 37 43 56 53 47 49 48 51 50 49 51
37 38 38 37 36 31 29 28 27 25 30 31 27 26 29 32 38 37 31 34 32 38 34 36 48 42 39 39 45 48 45 44 40 39 39 44 53 52 47 47 48 49 49 45 43
39 38 37 36 33 23 26 26 26 23 28 27 26 28 32 33 37 38 29 31 33 38 40 42 42 36 40 42 43 43 47 45 45 42 44 47 58 54 50 45 43 43 44 42 38
40 37 34 35 21 25 22 24 29 19 30 28 30 27 35 35 27 39 25 25 28 34 37 41 38 40 40 42 45 52 35 37 38 39 52 36 59 54 50 52 44 42 44 45 42
35 33 26 21 19 23 23 27 24 20 35 33 28 25 37 30 30 28 22 24 29 31 30 42 40 35 39 40 36 46 40 43 40 40 44 47 48 58 35 46 41 38 41 41 50
16 16 20 16 17 19 24 27 20 27 29 32 29 37 39 31 32 23 29 25 22 28 28 37 39 38 36 34 32 31 34 36 37 40 54 44 39 63 46 46 44 39 35 36 36
15 13 15 14 19 21 25 23 26 28 29 29 34 33 33 27 31 25 32 29 23 28 27 28 32 35 36 36 32 30 29 39 42 42 49 32 36 39 19 23 27 29 29 27 28
13 23 17 15 17 24 24 24 29 25 27 27 27 29 23 30 24 25 24 24 21 26 26 27 22 22 27 35 34 32 34 35 43 44 44 35 39 36 35 36 29 30 29 29 29
24 19 19 19 18 20 24 27 24 26 25 27 28 23 22 25 21 23 19 18 21 23 23 22 16 17 16 22 29 31 37 35 31 31 38 36 43 46 42 38 33 28 29 32 30
23 18 21 19 19 23 22 23 21 21 24 24 22 18 21 23 22 21 14 17 22 25 22 21 21 14 13 16 26 27 26 34 32 38 41 37 41 41 29 34 27 29 29 30 31
23 21 20 19 20 22 23 21 21 21 25 21 18 17 16 21 19 16 10 24 22 26 23 21 19 21 18 19 21 26 32 30 34 35 36 36 33 28 29 23 25 25 27 30 30
25 23 21 20 22 22 22 21 19 20 20 19 14 13 14 17 19 14 8 14 27 27 25 21 21 24 27 29 27 25 29 32 39 42 43 40 36 24 18 19 20 23 27 26 19
28 22 20 21 24 25 21 20 17 19 20 19 15 13 17 17 17 11 5 17 31 23 22 21 21 25 23 18 18 26 29 33 37 37 44 47 44 27 26 24 24 25 26 24 18
27 27 23 23 22 23 23 20 20 19 17 16 12 9 12 17 10 11 8 25 18 23 30 24 23 24 27 26 26 31 35 36 37 46 49 55 49 46 38 31 29 30 29 24 17
28 25 24 25 25 23 19 18 19 23 18 15 15 13 6 7 12 8 11 16 13 32 27 22 31 26 30 32 34 35 39 43 47 48 50 43 46 46 41 37 34 31 28 22 15
27 26 24 22 21 21 18 18 17 21 20 16 12 10 8 9 11 19 16 11 12 22 25 21 27 14 32 33 33 38 39 44 49 53 54 51 52 42 40 35 32 30 28 24 15
23 22 23 21 23 23 19 18 18 17 15 10 7 11 11 10 10 18 20 20 16 16 12 25 26 20 25 15 30 37 39 44 51 50 49 54 45 41 41 40 36 34 29 25 18
Wind_Direction
316 312 309 311 313 313 312 312 310 305 305 307 306 306 303 301 296 299 282 281 282 284 286 277 277 273 271 265 265 267 263 260 259 263 266 273 271 266 282 291 306 324 319 327 326
322 318 314 312 310 310 309 309 309 309 308 308 308 306 305 303 300 291 292 287 287 284 276 268 265 266 264 262 261 258 260 260 263 264 270 267 269 272 275 282 292 303 313 323 327
324 323 321 318 315 313 310 308 307 307 310 311 311 310 310 309 304 300 314 305 298 289 278 269 267 262 259 261 258 258 259 262 263 265 266 266 266 271 273 273 282 291 306 310 302
324 322 320 318 317 315 313 310 309 308 309 312 315 316 314 317 295 310 300 306 303 296 285 272 262 258 256 255 258 261 261 261 264 265 268 266 269 266 270 274 279 285 290 298 298
324 323 322 320 318 317 316 315 317 316 317 318 319 321 324 309 299 309 302 301 301 298 284 274 259 257 257 258 258 259 261 263 262 264 267 270 267 269 268 273 275 279 283 284 290
321 320 319 318 317 315 313 312 318 319 323 329 331 332 325 305 316 312 307 298 298 289 281 278 268 260 266 261 254 263 262 263 263 264 268 269 269 273 271 276 277 278 278 282 287
324 321 321 322 321 318 317 315 323 328 333 340 342 338 327 318 327 316 311 308 308 295 278 276 273 266 267 264 267 261 262 266 264 263 265 269 266 260 272 278 279 280 282 283 284
324 322 323 324 324 322 322 322 326 339 351 356 353 344 328 337 328 316 316 310 309 305 282 274 275 269 263 270 268 263 262 259 260 263 267 263 262 266 276 275 277 280 282 283 285
332 329 327 327 328 328 325 331 336 347 357 0 354 345 334 335 333 325 316 305 303 303 294 276 272 264 262 259 263 260 257 261 262 263 262 261 260 271 274 276 275 278 279 282 285
329 327 327 328 332 331 329 340 347 2 -0 360 351 339 336 328 329 325 319 306 301 300 289 271 266 261 256 251 253 258 259 262 263 264 258 262 261 273 276 277 275 276 279 282 282
330 328 327 327 331 335 349 357 357 353 352 347 338 334 328 333 331 327 324 311 297 295 282 272 259 253 257 256 257 268 264 262 264 268 268 264 267 271 276 274 276 277 279 281 281
330 330 327 330 333 353 4 4 2 354 343 339 342 340 339 338 329 328 331 314 295 279 279 274 260 262 264 261 257 258 262 263 268 268 271 270 270 272 275 275 276 276 277 282 286
334 332 337 339 345 11 7 7 4 2 346 344 348 345 343 344 332 332 329 318 302 281 273 268 264 270 262 258 256 257 258 261 264 270 270 274 270 271 272 276 278 279 281 283 286
336 347 350 342 16 9 12 9 358 10 345 346 347 351 346 340 334 334 337 322 309 290 275 268 267 263 261 258 254 254 259 262 266 266 263 274 268 269 272 272 276 279 280 281 284
351 355 3 7 10 10 9 2 5 11 341 348 353 359 351 352 340 342 352 325 307 300 288 267 259 260 259 258 257 257 258 258 263 266 267 264 271 265 277 272 278 282 281 282 261
308 2 7 19 18 15 6 4 17 355 346 350 353 350 349 352 346 345 340 318 326 314 299 278 266 258 261 261 259 259 254 255 258 261 258 261 264 260 270 272 276 280 284 281 279
333 6 25 36 18 15 8 13 359 356 356 353 351 354 353 356 349 350 340 309 317 313 313 291 271 257 253 257 257 253 250 246 249 249 253 260 257 260 296 281 279 279 278 288 289
335 24 43 38 24 11 13 11 358 1 356 355 358 353 3 2 1 357 351 322 324 310 311 306 273 263 252 249 250 247 243 246 247 248 252 254 258 263 259 254 277 269 275 286 286
22 38 37 30 28 22 15 8 7 3 1 358 358 5 6 5 10 5 8 345 317 326 302 314 308 299 280 258 246 246 242 245 258 258 252 252 257 258 248 252 262 273 282 285 282
29 37 32 31 32 18 20 12 11 8 3 2 1 13 5 3 10 15 32 355 319 322 317 294 293 326 312 282 260 252 248 240 246 247 248 252 252 250 254 249 269 277 286 284 276
30 32 35 32 26 23 17 15 9 12 12 14 11 6 8 9 10 15 43 342 326 315 317 305 300 289 295 271 259 251 246 247 246 247 246 248 251 258 252 260 271 283 289 284 273
25 24 31 31 25 24 16 13 11 15 18 21 20 19 16 16 9 12 37 10 318 313 302 305 298 286 278 278 274 263 253 249 243 241 245 246 242 256 263 267 288 290 294 294 283
20 24 33 32 17 16 16 14 20 17 15 20 22 28 14 11 12 21 16 355 298 319 312 314 294 292 287 296 289 260 256 253 249 248 241 238 232 249 259 271 285 287 297 297 283
19 17 22 29 26 17 14 20 18 18 17 27 19 24 17 3 6 2 336 330 343 314 293 305 296 290 279 282 283 267 259 255 248 241 240 236 238 242 253 263 275 283 290 293 275
18 19 20 13 15 14 20 20 18 17 28 20 29 29 356 348 284 296 341 342 329 298 301 292 272 291 283 284 280 268 263 252 245 241 238 242 241 243 254 260 267 273 281 285 274
14 14 14 12 14 17 19 21 20 17 18 20 26 3 290 290 287 272 261 247 230 319 292 300 255 214 262 284 280 269 266 254 246 239 238 241 241 246 254 255 264 266 277 274 267
17 19 15 15 15 15 21 20 17 11 27 33 347 286 278 280 274 263 253 248 227 213 187 259 271 289 235 292 287 274 267 254 245 240 236 235 243 246 249 248 257 259 268 265 254